[[{"header":{"parameterUnit":"m.s-1","parameterCategory":1,"la1":30.2991,"la2":30.254,"lo1":-89.0895,"lo2":-89.0444,"dy":0.0017,"dx":0.0017,"nx":28,"ny":28,"refTime":"2024-06-11T09:00:00:Z","depth":0,"parameterNumber":2,"parameterNumberName":"U-component_of_WINDS"},"data":[0,0,0,0,0,0,0,0,0,0,0,0,0,0,0,0,0,0,0,0,0,0,0,0,0,0,0,0,0,0,0,0,0,0,0,0,0,0,0,0,0,0,0,0,0,0,0,0,0,0,0,0,0,0,0,0,0,0,-2.8674,-2.8675,0,-2.8775,-2.8777,-2.8778,-2.8798,-2.8798,-2.8797,-2.8796,-2.8891,-2.8894,-2.8897,0,0,0,0,0,0,0,0,0,0,0,0,0,-2.849,-2.8493,-2.8674,-2.8675,-2.8676,-2.8775,-2.8777,-2.8778,-2.8799,-2.8798,-2.8797,-2.8796,-2.889,-2.8893,-2.8897,0,0,0,0,0,0,0,0,0,0,0,0,0,-2.8578,-2.8494,-2.8674,-2.8699,-2.8702,-2.8775,-2.8777,-2.8778,-2.8799,-2.8798,-2.8797,-2.8796,-2.8888,-2.8893,-2.8898,-2.895,0,0,-2.8913,-2.8915,0,0,0,0,0,0,0,0,-2.8573,-2.8585,-2.8694,-2.8697,-2.8701,-2.8773,-2.8747,-2.8835,-2.8799,-2.8762,-2.8796,-2.8795,-2.8852,-2.886,-2.8881,-2.8954,-2.8958,-2.8913,-2.8916,-2.8918,-2.8919,0,0,0,0,0,0,0,-2.8567,-2.8581,-2.8714,-2.8695,-2.87,-2.8703,-2.8714,-2.8763,-2.8811,-2.8765,-2.8767,-2.8779,-2.8854,-2.8876,-2.8883,-2.896,-2.8913,-2.8917,-2.892,-2.8922,-2.9081,-2.9082,0,0,0,0,0,0,-2.8558,-2.8575,-2.871,-2.8717,-2.8633,-2.8707,-2.8719,-2.8751,-2.8811,-2.8819,-2.878,-2.878,-2.8869,-2.8878,-2.8887,-2.8951,-2.8918,-2.8922,-2.8925,-2.908,-2.9081,-2.9083,0,0,0,0,0,0,-2.8554,-2.857,-2.8706,-2.8647,-2.8664,-2.8711,-2.8747,-2.8754,-2.8776,-2.8823,-2.883,-2.8795,-2.8868,-2.888,-2.8935,-2.8955,-2.8925,-2.8929,-2.9078,-2.908,-2.9082,-2.9081,0,0,0,0,0,0,-2.8548,-2.8568,-2.859,-2.8647,-2.8668,-2.8755,-2.8748,-2.8756,-2.8786,-2.8786,-2.8838,-2.8846,-2.8868,-2.8927,-2.8939,-2.8961,-2.8933,-2.9076,-2.9079,-2.9081,-2.9079,-2.9083,-2.9086,0,0,0,0,0,-2.8542,-2.8583,-2.8591,-2.8607,-2.8696,-2.8756,-2.8767,-2.8795,-2.8787,-2.8808,-2.8838,-2.8844,-2.8951,-2.8933,-2.8947,-2.897,-2.9075,-2.9078,-2.9081,-2.9078,-2.9082,-2.9086,0,0,0,0,0,0,-2.8523,-2.8591,-2.86,-2.8662,-2.8704,-2.876,-2.8787,-2.8798,-2.884,-2.8838,-2.8868,-2.888,-2.8933,-2.8957,-2.8935,-2.9024,-2.9013,-2.9018,-2.9005,-2.901,-2.9013,-2.9005,-2.8937,0,0,0,0,0,-2.8527,-2.8573,-2.8629,-2.8677,-2.8698,-2.8739,-2.8766,-2.8785,-2.8827,-2.8844,-2.8878,-2.8916,-2.8959,-2.8986,-2.9028,-2.9084,-2.9095,-2.9107,-2.911,-2.9112,-2.9116,-2.9148,-2.9153,-2.9093,-2.9093,-2.9093,0,0,-2.8533,-2.8576,-2.8602,-2.8675,-2.8709,-2.8754,-2.8754,-2.88,-2.8832,-2.885,-2.8904,-2.8931,-2.8976,-2.9032,-2.9058,-2.9054,-2.9136,-2.9116,-2.9118,-2.912,-2.9151,-2.9157,-2.9162,-2.9095,-2.9094,-2.9094,0,0,-2.8568,-2.8606,-2.8651,-2.8687,-2.8741,-2.8768,-2.8779,-2.8834,-2.8854,-2.891,-2.8924,-2.8962,-2.9035,-2.9067,-2.9092,-2.9143,-2.9149,-2.9155,-2.917,-2.9201,-2.9205,-2.921,-2.9226,-2.9232,-2.9159,-2.9159,-2.9159,0,-2.8568,-2.8639,-2.8672,-2.872,-2.875,-2.8773,-2.8818,-2.8849,-2.8912,-2.8932,-2.8927,-2.902,-2.9052,-2.9116,-2.9129,-2.9149,-2.9161,-2.9148,-2.9203,-2.9207,-2.9212,-2.9228,-2.9234,-2.916,-2.916,-2.916,-2.916,0,-2.8636,-2.8685,-2.8715,-2.8779,-2.8814,-2.8859,-2.8898,-2.8928,-2.8944,-2.8971,-2.9028,-2.9068,-2.9118,-2.9135,-2.9149,-2.9201,-2.9197,-2.9197,-2.9186,-2.9217,-2.9233,-2.9239,-2.916,-2.916,-2.916,-2.916,0,0,-2.8658,-2.8744,-2.8754,-2.8784,-2.8847,-2.8883,-2.893,-2.8983,-2.9008,-2.9051,-2.9089,-2.9152,-2.9153,-2.9183,-2.9201,-2.9228,-2.9264,-2.9225,-2.9226,-2.9229,-2.9323,-2.9321,-2.9328,-2.927,-2.9272,-2.9273,-2.9318,0,-2.87,-2.8787,-2.882,-2.889,-2.8934,-2.8958,-2.8998,-2.9039,-2.9066,-2.9106,-2.9135,-2.9179,-2.9178,-2.9196,-2.9224,-2.9254,-2.9283,-2.9251,-2.9303,-2.9305,-2.9289,-2.9336,-2.9334,-2.9375,-2.9325,-2.9326,-2.9327,0,-2.8759,-2.8807,-2.8883,-2.8941,-2.8961,-2.8997,-2.9049,-2.9088,-2.9134,-2.9152,-2.9187,-2.9204,-2.9252,-2.924,-2.9305,-2.9282,-2.9306,-2.9324,-2.9326,-2.933,-2.9316,-2.9339,-2.9389,-2.9395,-2.9337,-2.9336,-2.9335,0,-2.8766,-2.885,-2.8906,-2.8931,-2.9001,-2.9026,-2.9055,-2.9102,-2.9132,-2.9176,-2.9196,-2.9244,-2.927,-2.9306,-2.9335,-2.9324,-2.9396,-2.9387,-2.941,-2.941,-2.9422,-2.9421,-2.9474,-2.9441,-2.944,-2.944,-2.944,0,-2.8808,-2.8853,-2.8911,-2.8945,-2.8996,-2.9033,-2.9081,-2.9112,-2.9153,-2.9192,-2.9215,-2.925,-2.9287,-2.9327,-2.935,-2.9399,-2.9411,-2.9425,-2.943,-2.9422,-2.942,-2.9436,-2.9433,-2.9442,-2.9442,-2.9441,-2.9441,0,-2.8823,-2.8865,-2.8928,-2.8991,-2.9007,-2.9042,-2.9094,-2.9127,-2.9157,-2.9206,-2.9219,-2.9264,-2.9312,-2.9346,-2.9407,-2.9422,-2.9475,-2.9481,-2.946,-2.9462,-2.9483,-2.948,-2.9547,-2.9557,-2.9518,-2.9518,-2.9519,0,-2.8846,-2.8882,-2.895,-2.898,-2.9011,-2.9058,-2.909,-2.9128,-2.916,-2.9217,-2.9243,-2.9294,-2.9336,-2.9411,-2.9447,-2.9494,-2.95,-2.952,-2.9506,-2.9497,-2.9498,-2.9495,-2.9498,-2.9521,-2.9521,-2.9522,-2.9522,0,-2.8882,-2.8902,-2.895,-2.9005,-2.9044,-2.9088,-2.9132,-2.9154,-2.92,-2.9234,-2.9286,-2.9319,-2.9383,-2.9432,-2.9483,-2.951,-2.9523,-2.9527,-2.9534,-2.9525,-2.9511,-2.9518,-2.9464,-2.9524,-2.9524,-2.9524,-2.9524,-2.9524,-2.8902,-2.8935,-2.8989,-2.9041,-2.908,-2.9121,-2.9156,-2.9192,-2.9237,-2.9294,-2.9313,-2.9366,-2.9412,-2.9483,-2.9511,-2.9551,-2.955,-2.9561,-2.9563,-2.9565,-2.9564,-2.9507,-2.9561,-2.9561,-2.956,-2.956,-2.956,0,-2.8938,-2.8975,-2.9023,-2.9087,-2.9128,-2.9141,-2.9191,-2.9223,-2.9271,-2.9315,-2.9357,-2.9416,-2.9465,-2.9506,-2.9556,-2.958,-2.9587,-2.9591,-2.9589,-2.9595,-2.9563,-2.9551,-2.9585,-2.9585,-2.9585,-2.9585,-2.9585,-2.9585,-2.8962,-2.9019,-2.9045,-2.9121,-2.9157,-2.9212,-2.924,-2.9277,-2.9313,-2.9379,-2.9421,-2.9449,-2.9492,-2.9545,-2.9589,-2.96,-2.9616,-2.9619,-2.9631,-2.96,-2.9597,-2.9594,-2.9583,-2.9623,-2.9623,-2.9659,-2.966,-2.966]},{"header":{"parameterUnit":"m.s-1","parameterCategory":1,"la1":30.2991,"la2":30.254,"lo1":-89.0895,"lo2":-89.0444,"dy":0.0017,"dx":0.0017,"nx":28,"ny":28,"refTime":"2024-06-11T09:00:00:Z","depth":0,"parameterNumber":3,"parameterNumberName":"V-component_of_WINDS"},"data":[0,0,0,0,0,0,0,0,0,0,0,0,0,0,0,0,0,0,0,0,0,0,0,0,0,0,0,0,0,0,0,0,0,0,0,0,0,0,0,0,0,0,0,0,0,0,0,0,0,0,0,0,0,0,0,0,0,0,-2.2248,-2.2249,0,-2.2288,-2.2289,-2.2289,-2.2292,-2.2291,-2.2291,-2.229,-2.2333,-2.2334,-2.2336,0,0,0,0,0,0,0,0,0,0,0,0,0,-2.2174,-2.2176,-2.2248,-2.2249,-2.2249,-2.2288,-2.2289,-2.2289,-2.2292,-2.2291,-2.2291,-2.229,-2.2332,-2.2334,-2.2336,0,0,0,0,0,0,0,0,0,0,0,0,0,-2.221,-2.2176,-2.2248,-2.2255,-2.2256,-2.2288,-2.2289,-2.229,-2.2292,-2.2291,-2.229,-2.229,-2.2331,-2.2334,-2.2336,-2.2364,0,0,-2.2343,-2.2344,0,0,0,0,0,0,0,0,-2.2208,-2.2212,-2.2254,-2.2255,-2.2256,-2.2284,-2.2278,-2.2315,-2.2292,-2.2278,-2.229,-2.2289,-2.2317,-2.2321,-2.233,-2.2366,-2.2368,-2.2343,-2.2345,-2.2346,-2.2346,0,0,0,0,0,0,0,-2.2205,-2.2211,-2.2264,-2.2254,-2.2256,-2.2256,-2.2261,-2.2285,-2.2301,-2.2279,-2.228,-2.2284,-2.2318,-2.2327,-2.2331,-2.2369,-2.2343,-2.2345,-2.2347,-2.2348,-2.243,-2.243,0,0,0,0,0,0,-2.2201,-2.2209,-2.2263,-2.2265,-2.223,-2.2258,-2.2263,-2.2276,-2.2301,-2.2304,-2.2285,-2.2284,-2.2324,-2.2328,-2.2332,-2.2366,-2.2346,-2.2348,-2.2349,-2.2429,-2.243,-2.2431,0,0,0,0,0,0,-2.22,-2.2206,-2.2261,-2.2237,-2.2244,-2.226,-2.2275,-2.2277,-2.2287,-2.2305,-2.2308,-2.2292,-2.2323,-2.2329,-2.2356,-2.2367,-2.2349,-2.2351,-2.2428,-2.2429,-2.243,-2.2434,0,0,0,0,0,0,-2.2198,-2.2206,-2.2216,-2.2237,-2.2245,-2.2284,-2.2275,-2.2278,-2.2291,-2.229,-2.2312,-2.2315,-2.2323,-2.2352,-2.2358,-2.237,-2.2353,-2.2427,-2.2429,-2.243,-2.2433,-2.2435,-2.2437,0,0,0,0,0,-2.2195,-2.2216,-2.2217,-2.2223,-2.2259,-2.2285,-2.2289,-2.2298,-2.2292,-2.2302,-2.2314,-2.2315,-2.2366,-2.2355,-2.2362,-2.2375,-2.2426,-2.2428,-2.243,-2.2432,-2.2435,-2.2437,0,0,0,0,0,0,-2.2196,-2.2219,-2.222,-2.2249,-2.2265,-2.2285,-2.2299,-2.2301,-2.2319,-2.2318,-2.2328,-2.2333,-2.2359,-2.237,-2.2358,-2.2403,-2.2395,-2.2398,-2.2395,-2.2398,-2.24,-2.2396,-2.2355,0,0,0,0,0,-2.22,-2.2219,-2.2238,-2.2261,-2.2269,-2.2283,-2.2294,-2.2299,-2.2316,-2.2323,-2.2337,-2.2354,-2.2374,-2.2387,-2.2406,-2.2435,-2.244,-2.2447,-2.2449,-2.2451,-2.2453,-2.2469,-2.2472,-2.2437,-2.2436,-2.2436,0,0,-2.2208,-2.2223,-2.2234,-2.2262,-2.2275,-2.2294,-2.2288,-2.2309,-2.2323,-2.2327,-2.2352,-2.2363,-2.2383,-2.2411,-2.2424,-2.2421,-2.2464,-2.2453,-2.2454,-2.2456,-2.2471,-2.2474,-2.2477,-2.2438,-2.2437,-2.2437,0,0,-2.2231,-2.2245,-2.2265,-2.2278,-2.2298,-2.2307,-2.2312,-2.2332,-2.2339,-2.2365,-2.2368,-2.2385,-2.2419,-2.2433,-2.2444,-2.2473,-2.2474,-2.2479,-2.2489,-2.2504,-2.2507,-2.251,-2.2519,-2.2522,-2.2481,-2.2481,-2.2481,0,-2.2238,-2.2267,-2.2275,-2.2296,-2.2308,-2.2312,-2.2332,-2.2345,-2.237,-2.2378,-2.2374,-2.2416,-2.243,-2.2461,-2.2467,-2.2477,-2.2483,-2.2476,-2.2506,-2.2509,-2.2511,-2.252,-2.2523,-2.2482,-2.2482,-2.2482,-2.2482,0,-2.2274,-2.2294,-2.2308,-2.2331,-2.2345,-2.2366,-2.2377,-2.2391,-2.2395,-2.2404,-2.243,-2.2447,-2.2469,-2.2477,-2.2482,-2.2509,-2.2506,-2.2504,-2.2496,-2.2515,-2.2523,-2.2527,-2.2482,-2.2482,-2.2482,-2.2482,0,0,-2.2298,-2.2326,-2.2331,-2.2341,-2.2364,-2.2379,-2.24,-2.2421,-2.2432,-2.2449,-2.2466,-2.2495,-2.2493,-2.2506,-2.2512,-2.2526,-2.2546,-2.2522,-2.2523,-2.2525,-2.2576,-2.2576,-2.258,-2.2547,-2.2548,-2.2548,-2.2573,0,-2.2323,-2.2359,-2.2368,-2.2399,-2.2417,-2.2421,-2.2439,-2.2454,-2.2464,-2.248,-2.2491,-2.2511,-2.2508,-2.2515,-2.2529,-2.254,-2.2556,-2.2539,-2.2563,-2.2564,-2.2556,-2.2584,-2.2585,-2.2607,-2.2577,-2.2578,-2.2578,0,-2.2357,-2.2374,-2.2406,-2.2425,-2.2433,-2.2449,-2.2469,-2.2485,-2.2503,-2.2509,-2.2523,-2.2528,-2.255,-2.2542,-2.2572,-2.256,-2.2571,-2.2578,-2.2579,-2.2581,-2.2571,-2.2585,-2.2615,-2.2618,-2.2583,-2.2583,-2.2583,0,-2.2369,-2.2401,-2.2425,-2.2434,-2.2457,-2.2468,-2.2478,-2.2495,-2.2507,-2.2525,-2.2533,-2.2553,-2.2564,-2.258,-2.259,-2.2583,-2.2619,-2.2612,-2.2624,-2.2624,-2.263,-2.2629,-2.2661,-2.2639,-2.2639,-2.2639,-2.2639,0,-2.2395,-2.2415,-2.243,-2.2445,-2.2467,-2.2477,-2.2498,-2.2508,-2.2524,-2.254,-2.2545,-2.2561,-2.2574,-2.2591,-2.26,-2.2623,-2.2628,-2.2633,-2.2635,-2.2632,-2.2631,-2.2638,-2.2636,-2.264,-2.264,-2.264,-2.2639,0,-2.2413,-2.2424,-2.245,-2.247,-2.2475,-2.249,-2.2507,-2.2521,-2.2531,-2.2552,-2.2557,-2.2573,-2.2593,-2.2605,-2.2631,-2.2637,-2.2662,-2.2664,-2.2656,-2.2656,-2.2667,-2.2665,-2.2703,-2.2708,-2.2684,-2.2684,-2.2685,0,-2.2428,-2.2443,-2.2464,-2.2475,-2.2485,-2.2503,-2.2516,-2.2526,-2.2539,-2.256,-2.2571,-2.2592,-2.2609,-2.2642,-2.2656,-2.2676,-2.2677,-2.2689,-2.268,-2.2676,-2.2676,-2.2674,-2.2676,-2.269,-2.269,-2.269,-2.2691,0,-2.2453,-2.2458,-2.2475,-2.2494,-2.2508,-2.2524,-2.254,-2.2549,-2.2562,-2.2576,-2.2596,-2.2609,-2.2636,-2.2656,-2.2677,-2.2688,-2.2692,-2.2693,-2.2697,-2.2693,-2.2687,-2.269,-2.2658,-2.2692,-2.2692,-2.2692,-2.2692,-2.2692,-2.2469,-2.2482,-2.2499,-2.2518,-2.2531,-2.2545,-2.2559,-2.257,-2.2587,-2.2609,-2.2615,-2.2636,-2.2654,-2.2682,-2.2694,-2.2711,-2.2709,-2.2715,-2.2716,-2.2717,-2.2716,-2.2686,-2.2715,-2.2715,-2.2715,-2.2715,-2.2715,0,-2.2493,-2.2504,-2.2522,-2.2543,-2.2558,-2.2559,-2.2577,-2.2589,-2.2607,-2.2623,-2.264,-2.2663,-2.2683,-2.2699,-2.2719,-2.273,-2.2732,-2.2735,-2.2733,-2.2736,-2.2718,-2.2712,-2.2733,-2.2733,-2.2733,-2.2733,-2.2733,-2.2733,-2.2508,-2.253,-2.2536,-2.2565,-2.2576,-2.2596,-2.2606,-2.2619,-2.2632,-2.2658,-2.2674,-2.2684,-2.2699,-2.2721,-2.2739,-2.2743,-2.275,-2.2753,-2.2757,-2.2739,-2.2737,-2.2735,-2.273,-2.2754,-2.2754,-2.2773,-2.2774,-2.2774]}]]